Location: Observatory Park - Geauga Park District
(41.5832°N, 81.0716°W)
Time: 06:40:15
(UTC-04:00)

Envisat - Pass Details

Date: 02 October 2021
Orbit: 764 x 766 km, 98.2° (Epoch: 20 October)

Event Time Altitude Azimuth Distance (km) Brightness Sun altitude
Rises 05:38:33 0° 25° (NNE) 3,236 6.8 -20.1°
Reaches altitude 10° 05:41:15 10° 39° (NE) 2,305 6.2 -19.6°
Maximum altitude 05:45:25 25° 94° (E) 1,500 5.3 -18.9°
Drops below altitude 10° 05:49:33 10° 149° (SSE) 2,291 5.7 -18.1°
Sets 05:52:13 0° 163° (SSE) 3,212 6.3 -17.6°
